Погода в Госларе

Германия     51°54′37″N   10°25′38″E
темп.,
°C
ветер,
м/с
пор.,
м/с
влажн.,
%
обл.,
%
осадки,
мм/ч
давл.,
гПа
погр.,
м
17 мая, пн
пн1723:00+8ююз2292100 0.8 100119
02:00+7ююз22925 2.0 100116
05:00+6юз33935 0.0 100240
08:00+10юз368633 0.0 1003324
11:00+12зюз677975 0.6 10031031
14:00+14юз687192 1.0 10041394
17:00+13зюз577897 1.5 1003933
20:00+11зюз478934 3.3 1004267
18 мая, вт
вт1823:00+8юз379524 0.1 1006146
02:00+8зюз5109691 0.1 1008412
05:00+8зюз499596 0.0 1009457
08:00+9зюз578834 0.1 1011503
11:00+11зюз5782100 0.4 10111037
14:00+10з478986 1.5 1012573
17:00+10зюз678498 0.4 1012721
20:00+10зюз358840 0.6 1012344
19 мая, ср
ср1923:00+8зюз249359 0.4 101496
02:00+6зюз349545 0.4 101471
05:00+7з259768 0.1 1015229
08:00+8з359053 0.1 1016438
11:00+10з5584100 0.8 1017892
14:00+13зсз346644 1.3 10161387
17:00+13з4475100 1.4 1015766
20:00+10з478979 4.4 1016220
20 мая, чт
чт2023:00+7юз3494100 0.5 101766
02:00+6юз369410 0.5 1018116
05:00+5зюз349787 0.0 101975
08:00+8зсз259596 0.0 1021415
11:00+10з458249 0.2 1022785
14:00+13з676612 0.7 10221339
17:00+13зсз686649 0.4 10221530
20:00+11зсз35852 0.7 1022166
21 мая, пт
пт2123:00+7ю228970 0.0 102215
02:00+7ююз3384100 0.0 102135
05:00+8ююз228098 0.0 101927
08:00+11ююз267695 0.0 1018338
11:00+14юз6967100 0.1 10161358
14:00+12юз61277100 0.5 10151417
17:00+15юз2767100 0.3 10121085
20:00+12ссз1286100 0.6 101036